Portada
METAR-TAF:

METAR-TAF

Aeropuertos :

Aeropuerto de Saint-Étienne - Bouthéon

Saint-Etienne, Francia

latitud: 45-32N, longitud: 004-18E, altitud: 404 m

Observación

El informe se hizo hace 19 minutos, a las 09:00 UTC
Viento 5 kt del sur, variando entre sureste y sur-suroeste
Temperatura 10°C
Humedad 66%
Presión 1025 hPa
Visibilidad 10 km o más
sin nubes por debajo de 1500 m y sin presencia de cumulonimbus.

METAR: LFMH 240900Z AUTO 17005KT 140V200 CAVOK 10/04 Q1025

Hora: 11:19 (09:19 UTC)


TAF: falta

Observaciones y pronósticos meteorológicos de más de 4000 aeropuertos (mensajes METAR y TAF).

Los puntos amarillos y rojos representan las estaciones disponibles.

Ponga el ratón en el punto deseado para ver el nombre de la estación.

Haga clic para ver las observaciones y los pronósticos meteorológicos.

Para cambiar el mapa : haga clic en los botones verdes con una cruz de color negro para hacer un zoom, en el botón verde con un guión para alejar o en las flechas verdes para mapas adyacentes.


METAR-TAF: